Location: Boffles
(50.2545°N, 2.2037°E)
Time: 17:13:48
(UTC+00:00)

Daily predictions for brighter satellites

Satellite Brightness Start Highest point End
(mag) Time Altitude Azimuth Time Altitude Azimuth Time Altitude Azimuth
Cosmos 2237 Rocket 3.8 16:17:56 10° NW 16:23:10 40° WSW 16:28:22 10° S
Cosmos 405 Rocket 3.4 16:21:01 10° SSE 16:24:30 35° E 16:28:02 10° NNE
Meteor 1-27 4.2 16:20:30 10° S 16:26:06 70° E 16:31:40 10° NNE
Cosmos 1500 3.8 16:25:28 10° N 16:28:40 30° ENE 16:31:49 10° SE
Meteor 2-16 Rocket 4.5 16:23:23 10° S 16:29:28 71° E 16:35:35 10° NNE
Cosmos 1634 Rocket 4.0 16:23:22 10° N 16:29:43 80° E 16:36:04 10° SSE
USA 308 3.7 16:29:35 10° W 16:31:27 23° SW 16:33:05 10° SSE
Cosmos 1953 Rocket 3.6 16:27:32 10° N 16:32:01 73° E 16:36:26 10° SSE
Cosmos 2084 Rocket 4.5 16:29:50 10° NW 16:33:31 45° SW 16:37:09 10° SSE
Cosmos 2298 Rocket 4.3 16:31:39 10° SSW 16:36:58 75° WNW 16:42:20 10° NNE
SL-08 RB Rocket 3.8 16:32:52 10° SSE 16:37:20 84° WSW 16:41:53 10° NNW
ATLAS 2AS CENTAUR R/B 3.5 16:34:37 10° NW 16:40:55 33° NNE 16:46:56 10° E
H-2A R/B 4.2 16:37:35 10° SSW 16:42:00 29° W 16:46:20 10° NNW
ATLAS CENTAUR R/B 2.4 16:38:31 10° NW 16:42:08 63° NNE 16:49:00 10° ESE
CZ-4B R/B 4.2 16:38:27 10° ESE 16:42:50 31° ENE 16:47:08 10° N
CZ-2D R/B 3.1 16:39:35 10° SSE 16:43:15 83° ENE 16:46:57 10° NNW
Cosmos 2142 Rocket 4.5 16:37:32 10° N 16:43:38 63° ENE 16:49:43 10° SSE
Cosmos 2251 Rocket 4.3 16:41:34 10° N 16:46:16 30° NE 16:50:57 10° ESE
Cosmos 407 Rocket 4.3 16:42:25 10° N 16:46:52 28° NE 16:51:16 10° ESE
Cosmos 1437 Rocket 2.5 16:43:27 10° N 16:47:10 80° ENE 16:50:56 10° SSE
ERS-2 2.5 16:46:10 10° S 16:49:01 51° WSW 16:51:54 10° NNW
Cosmos 1544 2.6 16:45:48 10° N 16:49:04 78° ENE 16:52:19 10° SSE
Cosmos 2263 Rocket 2.6 16:45:21 10° S 16:50:32 42° ESE 16:55:46 10° NE
SJ-7 4.3 16:47:46 10° SSE 16:51:45 86° ENE 16:55:48 10° NNW
Helios 1A 4.2 16:49:14 10° NE 16:52:27 21° E 16:55:39 10° SE
Cosmos 44 3.6 16:48:40 10° NW 16:54:08 86° SW 16:59:20 10° SE
CZ-2C R/B 2.5 16:50:41 10° SSE 16:54:15 87° ENE 16:57:52 10° NNW
Cosmos 2227 Rocket 2.4 16:49:15 10° SW 16:54:54 73° WNW 17:00:35 10° NNE
COSMO-SKYMED 1 4.1 16:52:58 12° ENE 16:55:03 16° E 16:57:49 10° SE
Cosmos 2279 Rocket 4.0 16:50:07 10° N 16:56:25 84° E 17:02:38 10° S
USA 307 2.5 16:53:30 10° WNW 16:57:23 82° NNE 17:01:13 10° ESE
Cosmos 1812 3.9 16:54:44 10° SE 16:57:29 20° E 16:59:23 14° NE
Cosmos 2058 Rocket 3.0 16:53:21 10° S 16:57:45 67° E 17:02:09 10° NNE
CORIOLIS 4.1 16:53:30 10° SSE 16:58:48 72° ENE 17:04:11 10° NNW
AQUARIUS 4.2 16:56:24 10° SSE 17:00:46 58° ENE 17:05:11 10° N
RESURS DK-1 4.2 17:02:15 10° N 17:04:23 14° NE 17:04:46 13° NE
Cosmos 1603 4.1 16:59:33 10° NNW 17:04:58 41° NE 17:10:18 10° ESE
YAOGAN 11 4.1 17:02:49 10° NNE 17:07:23 82° ESE 17:11:57 10° SSW
Cosmos 1726 Rocket 4.4 17:05:52 10° SSW 17:10:12 53° WNW 17:14:34 10° N
Cosmos-2242 3.6 17:07:51 10° SSE 17:11:46 34° E 17:15:35 11° NNE
Helios 1B rocket 3.8 17:10:33 10° S 17:14:16 40° W 17:18:01 10° NNW
Meteor 1-31 Rocket 2.6 17:10:39 10° SSE 17:14:20 85° ENE 17:18:04 10° NNW
Cosmos 2151 3.6 17:12:04 10° NNW 17:16:16 59° W 17:20:27 10° S
CZ-4B R/B 3.5 17:13:16 10° SSE 17:16:51 88° WSW 17:20:31 10° NNW
SL-16 R/B 3.4 17:12:44 10° NW 17:18:10 46° WSW 17:23:31 10° S
Nadezhda 4 Rocket 4.1 17:12:26 10° SSE 17:18:20 52° E 17:24:16 10° NNE
ISS -2.6 17:15:42 10° W 17:18:56 42° SSW 17:22:07 10° SE
USA 276 3.3 17:19:18 10° SSW 17:21:11 20° SSE 17:21:35 19° SE
USA 306 2.5 17:19:59 10° WNW 17:22:06 38° SSW 17:23:18 19° SSE
Cosmos 1023 Rocket 4.4 17:17:33 10° NNW 17:22:43 65° ENE 17:27:47 10° SE
USA 234 3.6 17:19:11 18° ENE 17:24:02 52° SE 17:30:23 10° SSW
NOSS 8 (A) 4.2 17:21:12 10° SW 17:24:54 75° SE 17:26:17 30° NE
Cosmos 1782 4.0 17:23:39 10° SE 17:26:12 22° ESE 17:26:12 22° ESE
ADEOS 3.9 17:24:31 10° SE 17:29:23 41° ENE 17:34:15 10° N
SMAP 3.7 17:26:00 10° S 17:30:35 60° WSW 17:35:14 10° NNW
Cosmos 1943 3.1 17:25:40 10° NNW 17:31:20 79° ENE 17:36:59 10° SSE
Lacrosse 4 Rocket 1.3 17:27:16 10° NNW 17:31:38 71° NE 17:35:54 10° SE
Cosmos 724 4.4 17:26:15 10° SW 17:32:28 89° NW 17:37:16 18° NE
Cosmos 1666 2.9 17:29:13 10° NNW 17:32:44 63° W 17:36:13 10° S
Lacrosse 5 3.5 17:30:33 10° SSE 17:33:43 17° ESE 17:34:12 17° ESE
DMSP B5D2-2 4.4 17:29:03 10° N 17:34:15 69° WNW 17:39:25 10° SSW
YAOGAN 1 3.5 17:35:17 26° NE 17:35:17 26° NE 17:38:21 10° N
Cosmos 1602 3.8 17:32:27 10° NNW 17:36:10 73° W 17:39:53 10° S
SL-8 R/B 4.4 17:32:26 10° W 17:37:05 52° SSW 17:40:47 15° SE
Radarsat Rocket 3.9 17:34:35 10° SSE 17:40:21 70° ENE 17:46:27 10° NNW
Meteor 2-2 Rocket 4.4 17:36:19 10° SSE 17:41:51 51° E 17:47:30 10° NNE
SKYMED 2 3.8 17:41:35 27° NE 17:43:31 45° E 17:47:40 10° S
Cosmos 2297 Rocket 4.0 17:38:59 10° W 17:43:39 25° NW 17:48:20 10° NNE
Cosmos 2219 4.0 17:41:18 10° SW 17:46:44 49° NW 17:51:52 12° NNE
USA 305 2.9 17:43:53 10° WNW 17:47:41 66° SSW 17:49:35 27° SE
Cosmos 1140 Rocket 3.5 17:44:15 10° NNW 17:49:28 83° WSW 17:54:37 10° SSE
CBERS 1 LM4 rocket 4.3 17:48:33 10° SSE 17:53:22 89° E 17:58:08 10° NNW
Meteor 1-25 Rocket 4.2 17:52:18 10° NNW 17:58:02 89° WSW 18:03:38 10° S
Meteor 2-17 Rocket 4.4 17:55:47 10° S 18:01:47 58° E 18:07:47 10° NNE
Cosmos 2344 3.5 17:55:35 10° SSW 18:02:57 58° SE 18:06:28 31° ENE
Cosmos 2082 4.2 17:57:43 10° SW 18:03:14 56° NW 18:07:31 17° NNE
Cosmos 1812 Rocket 3.5 18:02:23 10° S 18:06:44 86° WNW 18:09:29 23° N
Cosmos 1833 Rocket 4.1 18:02:55 10° NNW 18:06:14 21° NNE 18:06:14 21° NNE
Cosmos 676 Rocket 4.3 18:05:23 10° NNW 18:10:28 45° ENE 18:10:28 45° ENE
SME Rocket 4.3 18:05:28 10° SE 18:11:04 66° ENE 18:19:48 10° NNW
BREEZE-M DEB (TANK) 3.4 18:11:27 10° WSW 18:12:21 25° WSW 18:12:21 25° WSW
NOAA 6 4.4 18:08:39 10° S 18:13:45 66° WSW 18:18:53 10° NNW
Timation 2 Rocket 4.2 18:10:01 10° S 18:15:25 41° ESE 18:15:25 41° ESE
Meteor 1-26 Rocket 4.3 18:10:34 10° SSE 18:15:48 48° E 18:15:48 48° E
Cosmos 1933 3.9 18:16:49 10° S 18:19:40 45° S 18:19:40 45° S
CZ-4B R/B 4.2 18:29:01 32° NNE 18:29:01 32° NNE 18:32:20 10° N
Helios 1A 4.0 18:25:23 20° N 18:27:55 45° WNW 18:31:52 10° SW
Cosmos 2251 Rocket 4.3 18:23:37 10° NNW 18:28:48 52° WSW 18:33:59 10° S
CZ-4B R/B 3.4 18:30:01 52° NNW 18:30:01 52° NNW 18:33:15 10° NNW
Cosmos 407 Rocket 4.1 18:24:06 10° NNW 18:29:09 54° WSW 18:34:07 10° S
COSMO-SKYMED 1 2.9 18:30:11 39° N 18:31:38 63° WNW 18:35:56 10° SSW
Cosmos 1812 4.2 18:29:03 10° SW 18:32:26 34° WNW 18:33:51 25° NNW
USA 307 4.4 18:29:19 10° W 18:32:37 27° SW 18:33:24 25° SSW
ATLAS 2AS CENTAUR R/B 2.5 18:25:56 10° NW 18:32:56 75° NE 18:34:42 51° ESE
Cosmos 1553 Rocket 3.9 18:27:32 10° N 18:33:54 70° ENE 18:40:06 10° SSE
Cosmos 2263 Rocket 3.3 18:29:16 10° WSW 18:34:30 40° NW 18:37:41 21° N
Cosmos 1844 Rocket 2.8 18:29:43 10° S 18:34:31 55° SE 18:34:31 55° SE
Cosmos 2227 4.3 18:30:01 10° SSW 18:35:47 78° WNW 18:37:41 44° NNE
Meteor 1-5 Rocket 4.2 18:30:16 10° NNW 18:35:57 88° W 18:41:47 10° S
SL-08 R/B 3.2 18:37:34 76° NNW 18:37:49 80° WNW 18:42:26 10° SSW
Cosmos 2082 Rocket 4.3 18:36:31 10° N 18:37:54 14° N 18:37:54 14° N
Cosmos 2227 Rocket 4.3 18:35:55 10° W 18:39:59 20° NW 18:43:25 12° N
Cosmos 2056 Rocket 4.3 18:35:14 10° S 18:38:45 39° SSE 18:38:45 39° SSE
Cosmos 1954 Rocket 3.9 18:37:32 10° NNW 18:42:48 88° NNE 18:42:48 88° NNE
RESURS DK-1 4.2 18:38:54 10° NNW 18:40:29 22° NNW 18:40:29 22° NNW
Cosmos 2026 Rocket 4.2 18:40:10 10° SSW 18:46:25 72° WNW 18:52:47 10° N
ATLAS CENTAUR R/B 4.3 18:42:27 10° WNW 18:47:04 38° SW 18:55:20 10° SSE
Cosmos 1818 3.5 18:45:07 10° SW 18:50:23 84° WSW 18:50:23 84° WSW
ADEOS Rocket 4.4 19:02:33 23° N 19:02:33 23° N 19:04:47 10° N
USA 234 3.2 19:06:32 66° NNE 19:07:15 71° NNW 19:13:45 10° WSW
Lacrosse 4 Rocket 4.3 19:06:47 10° WNW 19:09:31 16° WSW 19:12:12 10° SW
YAOGAN 1 4.4 19:12:21 26° NW 19:12:21 26° NW 19:14:38 10° NNW
Lacrosse 5 3.4 19:10:55 10° SW 19:13:26 30° SW 19:13:26 30° SW
Cosmos 2344 4.3 20:10:37 10° W 20:16:30 43° NW 20:16:30 43° NW
ATLAS 2AS CENTAUR R/B 4.2 20:17:30 10° NW 20:22:10 28° W 20:22:10 28° W
